Location: Gleizolles
(44.4833°N, 6.7667°E)
Time: 03:40:03
(UTC+00:00)

BREEZE M DEB (TANK) - Pass Details

Date: 09 April 2020
Orbit: 313 x 13666 km, 49.6° (Epoch: 01 June)

Event Time Altitude Azimuth Distance (km) Brightness Sun altitude
Rises 20:38:53 0° 259° (W) 5,771 8.5 -24.3°
Reaches altitude 10° 20:44:19 10° 264° (W) 3,345 7.3 -25.1°
Maximum altitude 20:50:34 49° 340° (NNW) 734 3.7 -25.9°
Enters shadow 20:50:45 48° 351° (N) 721 3.6 -25.9°
